Location: Unspecified
(0.0000°N, 0.0000°E)
Time: 13:10:05
(UTC+00:00)

Vanguard 1 Rocket - Pass Details

Date: 08 October 2023
Orbit: 655 x 4218 km, 34.3° (Epoch: 05 December)

Event Time Altitude Azimuth Distance (km) Brightness Sun altitude
Exits shadow 03:23:04 28° 323° (NW) 5,684 11.0 -36.0°
Maximum altitude 03:38:11 64° 33° (NNE) 3,374 10.1 -32.2°
Drops below altitude 10° 03:51:58 10° 112° (ESE) 4,536 11.8 -28.8°
Sets 03:54:44 0° 115° (ESE) 5,181 12.3 -28.1°
